• In Hungary
  • List of Countries
  • For 7 days
  • Water Temperature
  • Satellite Maps
  • Weather Map
  • News
  • Weather Widgets
  • user-avatar
    Login

    Hourly Weather Zaozere

    Today, 16 December, Saturday

    Time Temperature Precipitation Wind Pressure Humidity
    00:00 +6°C° 0 mm 2 mps 760 mmHg 96%
    01:00 +6°C° 0 mm 2 mps 760 mmHg 96%
    02:00 +6°C° 0 mm 2 mps 760 mmHg 96%
    03:00 +6°C° 0 mm 2 mps 760 mmHg 96%
    04:00 +6°C° 0 mm 2 mps 760 mmHg 95%
    05:00 +5°C° 0 mm 3 mps 760 mmHg 95%
    06:00 +5°C° 0 mm 3 mps 760 mmHg 94%
    07:00 +5°C° 0 mm 4 mps 760 mmHg 91%
    08:00 +5°C° 0 mm 4 mps 760 mmHg 88%
    09:00 +6°C° 0 mm 4 mps 760 mmHg 84%
    10:00 +6°C° 0 mm 4 mps 760 mmHg 79%
    11:00 +7°C° 0 mm 5 mps 760 mmHg 73%
    12:00 +8°C° 0 mm 5 mps 760 mmHg 68%
    13:00 +8°C° 0 mm 5 mps 760 mmHg 68%
    14:00 +8°C° 0 mm 5 mps 760 mmHg 67%
    15:00 +9°C° 0 mm 5 mps 760 mmHg 67%
    16:00 +8°C° 0 mm 5 mps 760 mmHg 69%
    17:00 +7°C° 0 mm 6 mps 760 mmHg 72%
    18:00 +7°C° 0 mm 6 mps 760 mmHg 74%
    19:00 +5°C° 0 mm 6 mps 760 mmHg 77%
    20:00 +5°C° 0 mm 6 mps 760 mmHg 79%
    21:00 +5°C° 0 mm 6 mps 760 mmHg 82%
    22:00 +5°C° 0 mm 6 mps 760 mmHg 84%
    23:00 +4°C° 0 mm 6 mps 760 mmHg 86%

    Tomorrow, 17 December, Sunday

    Time Temperature Precipitation Wind Pressure Humidity
    00:00 +4°C° 0 mm 6 mps 760 mmHg 88%
    01:00 +4°C° 0 mm 6 mps 760 mmHg 88%
    02:00 +4°C° 0 mm 6 mps 760 mmHg 89%
    03:00 +3°C° 0 mm 6 mps 760 mmHg 90%
    04:00 +3°C° 0 mm 6 mps 760 mmHg 90%
    05:00 +3°C° 0 mm 6 mps 760 mmHg 90%
    06:00 +3°C° 0 mm 6 mps 760 mmHg 90%
    07:00 +3°C° 0 mm 6 mps 761 mmHg 90%
    08:00 +3°C° 0 mm 6 mps 761 mmHg 90%
    09:00 +3°C° 0 mm 6 mps 761 mmHg 89%
    10:00 +4°C° 0 mm 6 mps 761 mmHg 85%
    11:00 +5°C° 0 mm 6 mps 761 mmHg 81%
    12:00 +7°C° 0 mm 6 mps 760 mmHg 76%
    13:00 +7°C° 0 mm 6 mps 760 mmHg 75%
    14:00 +7°C° 0 mm 6 mps 760 mmHg 74%
    15:00 +8°C° 0 mm 6 mps 760 mmHg 73%
    16:00 +7°C° 0 mm 6 mps 760 mmHg 76%
    17:00 +7°C° 0 mm 6 mps 760 mmHg 78%
    18:00 +5°C° 0 mm 6 mps 760 mmHg 80%
    19:00 +5°C° 0 mm 6 mps 760 mmHg 81%
    20:00 +5°C° 0 mm 6 mps 760 mmHg 82%
    21:00 +5°C° 0 mm 6 mps 759 mmHg 83%
    22:00 +5°C° 0 mm 6 mps 759 mmHg 83%
    23:00 +4°C° 0 mm 6 mps 759 mmHg 84%

    Day after tomorrow, 18 December, Monday

    Time Temperature Precipitation Wind Pressure Humidity
    00:00 +4°C° 0 mm 6 mps 759 mmHg 84%
    01:00 +4°C° 0 mm 6 mps 759 mmHg 84%
    02:00 +4°C° 0 mm 6 mps 759 mmHg 85%
    03:00 +4°C° 0 mm 6 mps 759 mmHg 85%
    04:00 +4°C° 0.1 mm 6 mps 759 mmHg 85%
    05:00 +4°C° 0.1 mm 6 mps 759 mmHg 85%
    06:00 +4°C° 0.1 mm 6 mps 758 mmHg 85%
    07:00 +4°C° 0.1 mm 6 mps 758 mmHg 85%
    08:00 +4°C° 0.1 mm 6 mps 759 mmHg 85%
    09:00 +5°C° 0.1 mm 6 mps 759 mmHg 84%
    10:00 +5°C° 0.1 mm 6 mps 759 mmHg 83%
    11:00 +5°C° 0.1 mm 6 mps 758 mmHg 82%
    12:00 +7°C° 0.1 mm 6 mps 758 mmHg 80%
    13:00 +7°C° 0.4 mm 6 mps 758 mmHg 81%
    14:00 +7°C° 0.4 mm 6 mps 758 mmHg 81%
    15:00 +7°C° 0.4 mm 6 mps 758 mmHg 82%
    16:00 +7°C° 0.2 mm 6 mps 758 mmHg 82%
    17:00 +7°C° 0.2 mm 6 mps 758 mmHg 83%
    18:00 +7°C° 0.2 mm 6 mps 758 mmHg 83%
    19:00 +7°C° 0.4 mm 5 mps 758 mmHg 85%
    20:00 +7°C° 0.4 mm 5 mps 758 mmHg 87%
    21:00 +7°C° 0.4 mm 5 mps 758 mmHg 89%
    22:00 +6°C° 1 mm 5 mps 758 mmHg 91%
    23:00 +6°C° 1 mm 5 mps 758 mmHg 92%

    19 December, Tuesday

    Time Temperature Precipitation Wind Pressure Humidity
    00:00 +6°C° 1 mm 4 mps 759 mmHg 93%
    01:00 +6°C° 0.8 mm 4 mps 759 mmHg 93%
    02:00 +6°C° 0.8 mm 4 mps 759 mmHg 93%
    03:00 +7°C° 0.8 mm 3 mps 759 mmHg 93%
    04:00 +5°C° 0.2 mm 3 mps 759 mmHg 93%
    05:00 +6°C° 0.2 mm 2 mps 759 mmHg 93%
    06:00 +6°C° 0.2 mm 2 mps 759 mmHg 93%
    07:00 +6°C° 0.2 mm 2 mps 759 mmHg 92%
    08:00 +6°C° 0.2 mm 2 mps 759 mmHg 92%
    09:00 +6°C° 0.2 mm 2 mps 760 mmHg 91%
    10:00 +6°C° 0.1 mm 2 mps 760 mmHg 87%
    11:00 +5°C° 0.1 mm 3 mps 760 mmHg 83%
    12:00 +5°C° 0.1 mm 3 mps 760 mmHg 79%
    13:00 +5°C° 0 mm 3 mps 760 mmHg 76%
    14:00 +5°C° 0 mm 3 mps 760 mmHg 73%
    15:00 +4°C° 0 mm 3 mps 760 mmHg 70%
    16:00 +4°C° 0 mm 3 mps 761 mmHg 70%
    17:00 +3°C° 0 mm 3 mps 761 mmHg 71%
    18:00 +3°C° 0 mm 3 mps 762 mmHg 71%
    19:00 +2°C° 0 mm 3 mps 762 mmHg 73%
    20:00 +2°C° 0 mm 3 mps 763 mmHg 74%
    21:00 +1°C° 0 mm 3 mps 763 mmHg 76%
    22:00 +2°C° 0 mm 2 mps 763 mmHg 77%
    23:00 +1°C° 0 mm 2 mps 764 mmHg 79%

    20 December, Wednesday

    Time Temperature Precipitation Wind Pressure Humidity
    00:00 +1°C° 0 mm 2 mps 764 mmHg 81%
    01:00 -1°C° 0 mm 2 mps 764 mmHg 81%
    02:00 -1°C° 0 mm 2 mps 764 mmHg 81%
    03:00 -1°C° 0 mm 2 mps 765 mmHg 82%
    04:00 +1°C° 0 mm 1 mps 765 mmHg 82%
    05:00 +1°C° 0 mm 1 mps 765 mmHg 81%
    06:00 0°C° 0 mm 1 mps 765 mmHg 81%
    07:00 +1°C° 0 mm 1 mps 765 mmHg 80%
    08:00 0°C° 0 mm 0 mps 765 mmHg 78%
    09:00 0°C° 0 mm 0 mps 766 mmHg 77%
    10:00 0°C° 0 mm 0 mps 766 mmHg 73%
    11:00 +1°C° 0 mm 0 mps 766 mmHg 68%
    12:00 +3°C° 0 mm 1 mps 766 mmHg 64%
    13:00 +3°C° 0 mm 1 mps 765 mmHg 63%
    14:00 +3°C° 0 mm 1 mps 765 mmHg 63%
    15:00 +2°C° 0 mm 2 mps 765 mmHg 62%
    16:00 +2°C° 0 mm 2 mps 765 mmHg 66%
    17:00 +1°C° 0 mm 2 mps 765 mmHg 69%
    18:00 +1°C° 0 mm 2 mps 765 mmHg 73%
    19:00 +1°C° 0 mm 2 mps 765 mmHg 73%
    20:00 0°C° 0 mm 3 mps 765 mmHg 74%
    21:00 0°C° 0 mm 3 mps 765 mmHg 75%
    22:00 0°C° 0.3 mm 3 mps 765 mmHg 76%
    23:00 0°C° 0.3 mm 3 mps 764 mmHg 78%

    21 December, Thursday

    Time Temperature Precipitation Wind Pressure Humidity
    00:00 -1°C° 0.3 mm 4 mps 764 mmHg 79%
    01:00 -1°C° 0.7 mm 4 mps 764 mmHg 83%
    02:00 -1°C° 0.7 mm 4 mps 764 mmHg 86%
    03:00 -1°C° 0.7 mm 5 mps 763 mmHg 90%
    04:00 -1°C° 0.8 mm 5 mps 763 mmHg 91%
    05:00 -1°C° 0.8 mm 5 mps 763 mmHg 92%
    06:00 -2°C° 0.8 mm 5 mps 763 mmHg 93%
    07:00 -1°C° 0.8 mm 5 mps 762 mmHg 94%
    08:00 -1°C° 0.8 mm 5 mps 762 mmHg 94%
    09:00 -1°C° 0.8 mm 5 mps 762 mmHg 95%
    10:00 -1°C° 0.3 mm 5 mps 762 mmHg 96%
    11:00 -1°C° 0.3 mm 4 mps 762 mmHg 97%
    12:00 -1°C° 0.3 mm 4 mps 761 mmHg 98%
    13:00 0°C° 0.2 mm 3 mps 761 mmHg 98%
    14:00 0°C° 0.2 mm 3 mps 761 mmHg 99%
    15:00 0°C° 0.2 mm 3 mps 760 mmHg 99%
    16:00 0°C° 0.1 mm 3 mps 760 mmHg 99%
    17:00 0°C° 0.1 mm 3 mps 760 mmHg 99%
    18:00 +1°C° 0.1 mm 2 mps 760 mmHg 98%
    19:00 +1°C° 0.1 mm 2 mps 760 mmHg 98%
    20:00 +1°C° 0.1 mm 2 mps 760 mmHg 98%
    21:00 +1°C° 0.1 mm 2 mps 760 mmHg 98%
    22:00 +1°C° 0 mm 2 mps 760 mmHg 98%
    23:00 +1°C° 0 mm 2 mps 760 mmHg 98%
    Show more